Weather Service Report


909 
ASUS42 KCAE 071810
RWRCAE
REGIONAL WEATHER ROUNDUP
NATIONAL WEATHER SERVICE COLUMBIA SC
100 PM EST WED DEC 07 2016

NOTE: "FAIR" INDICATES FEW OR NO CLOUDS BELOW 12,000 FEET WITH NO
SIGNIFICANT WEATHER AND/OR OBSTRUCTIONS TO VISIBILITY.

NOT ALL STATIONS ARE QUALITY CONTROLLED BY THE NATIONAL 
WEATHER SERVICE. USE DATA WITH CAUTION...ESPECIALLY 
DEWPOINT OBSERVATIONS.

SCZ001>056-GAZ040-063>065-077-071900-
...UPSTATE SOUTH CAROLINA...
  
CITY           SKY/WX    TMP DP  RH WIND       PRES   REMARKS
ANDERSON       PTSUNNY   58  45  62 NE5       30.04F                  
6HR MIN TEMP:  46; 6HR MAX TEMP:  58;                                

LIBERTY        CLOUDY    55  43  65 SE6       30.03F                  
6HR MIN TEMP:  43; 6HR MAX TEMP:  54;                                

SPARTANBURG    PTSUNNY   52  43  71 SE3       30.05F                  
CLEMSON        CLOUDY    57  44  62 VRB3      30.05F                  
6HR MIN TEMP:  47; 6HR MAX TEMP:  57;                                

GREENVILLE     PTSUNNY   55  42  61 VRB3      30.05F                  
6HR MIN TEMP:  41; 6HR MAX TEMP:  56;                                

GREENWOOD      CLOUDY    52  46  80 E6        30.07F                  
6HR MIN TEMP:  46; 6HR MAX TEMP:  52;                                

GREER          CLOUDY    54  41  61 E7        30.04F                  
6HR MIN TEMP:  40; 6HR MAX TEMP:  55;                                

ROCK HILL      CLOUDY    52  43  71 CALM      30.05F                  
6HR MIN TEMP:  44; 6HR MAX TEMP:  52;                                

CHESTER        CLOUDY    48  48 100 SE3       30.07F                  
LAURENS          N/A     54  45  71 E6        30.05F                  


...CENTRAL SOUTH CAROLINA...
  
CITY           SKY/WX    TMP DP  RH WIND       PRES   REMARKS
COLUMBIA APT   PTSUNNY   54  47  77 VRB3      30.06F                  
6HR MIN TEMP:  50; 6HR MAX TEMP:  56;                                

COLUMBIA OWENS SUNNY     55  47  74 S5        30.07F                  
6HR MIN TEMP:  49; 6HR MAX TEMP:  56;                                

MCENTIRE ANGB  MOSUNNY   55  46  71 CALM      30.06F                  
ORANGEBURG     CLOUDY    53  49  86 CALM      30.06F                  
6HR MIN TEMP:  49; 6HR MAX TEMP:  54;                                

SUMTER SHAW    SUNNY     60  45  58 CALM      30.03F                  
6HR MIN TEMP:  46; 6HR MAX TEMP:  60;                                

NEWBERRY       CLOUDY    54  46  76 E5        30.08F                  
AIKEN          CLOUDY    50  48  93 E5        30.09F FOG              
MANNING        FAIR      55  46  71 SW3       30.06F                  
LANCASTER      CLOUDY    55  41  58 E5        30.06S                  
WINNSBORO      PTCLDY    55  46  71 SE8       30.06S                  


...EASTERN AND COASTAL SOUTH CAROLINA...
  
CITY           SKY/WX    TMP DP  RH WIND       PRES   REMARKS
MYRTLE BEACH   SUNNY     61  45  55 N7        30.06F                  
N MYRTLE BCH   SUNNY     61  45  55 NE7       30.03F                  
6HR MIN TEMP:  46; 6HR MAX TEMP:  61;                                

CONWAY         FAIR      59  45  58 CALM      30.04F                  
MARION         FAIR      59  45  58 N5        30.05F                  
HARTSVILLE     FAIR      57  43  58 NE3       30.04F                  
FLORENCE       SUNNY     60  46  59 CALM      30.05F                  
6HR MIN TEMP:  44; 6HR MAX TEMP:  60;                                

DARLINGTON     MOSUNNY   58  45  62 CALM      30.05F                  
6HR MIN TEMP:  40; 6HR MAX TEMP:  59;                                

CHARLESTON APT MOSUNNY   60  50  69 CALM      30.05F                  
6HR MIN TEMP:  51; 6HR MAX TEMP:  58;                                

WALTERBORO     CLOUDY    55 N/A N/A CALM      30.07F                  
BEAUFORT       CLOUDY    58  54  86 VRB3      30.05F                  
6HR MIN TEMP:  54; 6HR MAX TEMP:  58;                                

HILTON HEAD    CLOUDY    61  55  82 N7        30.06F                  


...EASTERN GEORGIA...
  
CITY           SKY/WX    TMP DP  RH WIND       PRES   REMARKS
AUGUSTA BUSH F CLOUDY    56  52  86 S3        30.05F FOG              
6HR MIN TEMP:  50; 6HR MAX TEMP:  56;                                

AUGUSTA DANIEL CLOUDY    54  50  86 SE3       30.06F FOG              
6HR MIN TEMP:  52; 6HR MAX TEMP:  54;                                

THOMSON        CLOUDY    54  54 100 SW3       30.10F                  
6HR MIN TEMP:  47; 6HR MAX TEMP:  54;                                

WASHINGTON     CLOUDY    55  55 100 S3        30.06S FOG              
CLAXTON        CLOUDY    63  57  81 W5        30.04F                  
SYLVANIA       CLOUDY   N/A N/A N/A N5        30.06S                  
SAVANNAH       CLOUDY    62  53  72 NW5       30.04F                  
6HR MIN TEMP:  49; 6HR MAX TEMP:  63;                                



...SOUTHERN NORTH CAROLINA...
  
CITY           SKY/WX    TMP DP  RH WIND       PRES   REMARKS
CHARLOTTE      PTSUNNY   55  40  56 CALM      30.06F                  
6HR MIN TEMP:  42; 6HR MAX TEMP:  55;                                

MONROE         CLOUDY    53  40  61 NE6       30.04F                  
6HR MIN TEMP:  42; 6HR MAX TEMP:  53;                                

WADESBORO      MOCLDY    53  41  65 NE3       30.05F                  
ROCKINGHAM     PTCLDY    56  44  64 CALM      30.04F                  
RUTHERFORDTON  PTSUNNY   57  39  52 SE7       30.04F                  
ASHEVILLE      SUNNY     54  37  52 S6        30.02F                  
6HR MIN TEMP:  40; 6HR MAX TEMP:  54;                                


$$
  

Return to Home page


Western Regional Climate Center, wrcc@dri.edu